Wind_Speed
16 16 16 17 17 17 16 17 17 17 17 17 17 18 19 19 19 18 18 19 19 19 18 19 18 19 20 21 21 22 23 24 24 25 25 26 27 27 27 28 29 30 31
15 15 16 15 15 15 16 16 17 17 17 16 17 18 18 18 18 18 18 18 18 19 19 19 19 20 20 21 21 22 23 24 25 26 26 28 28 28 28 29 30 30 31
15 15 15 15 15 15 15 15 15 16 16 16 17 17 16 16 16 16 16 17 17 18 19 20 20 20 20 21 22 23 24 24 25 26 27 28 28 28 29 29 30 30 31
15 15 15 15 15 16 15 15 15 15 15 16 16 16 16 16 16 16 16 17 17 18 19 20 20 20 20 21 22 22 23 24 25 26 27 28 28 29 29 29 29 30 30
15 15 15 16 16 16 15 15 15 15 15 15 16 16 16 16 15 15 16 16 17 17 18 18 19 19 19 20 21 22 23 24 25 26 27 27 27 28 28 28 29 29 29
15 16 16 16 16 15 15 14 14 14 14 15 15 15 15 15 15 16 16 16 16 16 17 18 19 20 19 20 20 22 23 24 24 25 26 26 26 27 27 28 29 29 28
15 15 15 14 14 14 14 14 14 14 14 14 15 15 16 16 16 15 15 16 16 16 17 18 19 20 20 20 20 21 22 23 23 24 25 25 26 26 27 27 27 27 27
16 15 14 14 14 14 14 14 14 14 14 14 14 14 15 15 15 15 16 16 16 17 18 18 18 19 20 19 19 20 21 21 22 23 23 24 25 25 26 26 26 26 26
16 15 14 14 14 14 14 14 14 14 14 14 14 14 14 14 15 15 16 16 17 18 18 18 18 19 19 19 20 20 20 21 21 21 22 22 23 23 24 25 25 24 24
16 16 16 15 15 14 14 14 13 14 14 14 14 14 14 14 15 15 16 17 18 18 18 18 17 18 18 18 18 18 18 18 19 20 20 21 22 23 23 23 23 24 24
16 16 16 16 15 15 15 14 14 14 14 14 14 15 15 15 15 16 16 17 17 17 17 17 17 17 17 16 17 18 18 19 19 20 20 21 22 23 23 24 24 24 24
16 16 16 16 16 16 15 14 14 14 15 15 14 14 15 15 15 16 15 15 15 16 16 16 15 15 15 16 16 18 18 19 19 19 20 21 22 22 22 23 24 24 24
16 16 16 16 16 15 14 14 15 15 15 15 14 14 15 15 15 15 15 15 15 15 15 15 15 15 15 16 16 17 17 18 19 19 20 20 21 22 23 23 24 24 25
18 17 16 16 15 15 14 14 15 15 15 15 15 14 15 15 15 15 15 15 15 14 14 15 14 15 15 16 17 17 17 17 18 19 19 20 21 22 23 23 24 25 25
19 18 16 16 16 15 15 15 15 15 15 15 15 15 15 15 15 14 14 15 14 14 14 14 15 15 15 16 16 16 17 17 18 19 19 20 21 22 23 25 25 26 26
18 17 17 17 16 16 16 16 16 16 16 16 15 15 14 14 14 14 14 14 14 14 14 14 15 15 16 16 17 17 17 17 18 19 21 21 22 23 24 25 25 26 26
18 18 18 17 17 17 17 17 17 17 16 16 15 15 14 14 14 14 14 14 14 14 14 15 16 16 17 17 17 17 17 18 19 21 22 23 23 24 25 25 26 26 26
19 19 19 18 18 18 17 17 17 17 16 15 15 15 15 15 15 15 14 14 15 15 15 16 16 17 17 17 17 18 18 19 21 22 23 23 23 24 25 25 25 26 26
19 19 19 19 19 19 18 18 18 17 16 16 16 16 16 15 15 15 15 15 16 16 17 17 17 17 18 18 19 19 20 21 22 23 23 24 24 25 25 25 25 26 26
20 20 19 19 19 19 19 19 18 18 18 17 17 17 16 16 15 15 16 17 17 18 18 18 17 18 19 20 20 21 22 23 23 24 24 24 24 25 25 25 25 26 26
20 20 20 19 19 19 19 19 19 19 19 19 18 18 18 17 17 17 18 18 18 19 19 19 19 19 20 21 21 22 23 23 24 24 24 24 24 24 25 25 25 26 26
20 20 20 20 20 20 20 20 19 19 20 19 19 18 18 19 19 19 19 20 20 20 20 20 20 21 21 22 23 23 23 23 23 23 23 24 24 25 25 26 26 25 24
21 20 20 20 20 20 20 19 20 20 19 19 18 18 19 20 20 20 20 21 22 21 21 21 21 21 22 23 23 23 22 22 23 23 23 24 25 25 25 25 24 24 23
22 21 21 21 21 21 20 20 19 19 19 19 19 20 20 20 21 21 22 22 22 22 20 20 21 21 21 22 22 22 23 23 23 23 24 24 24 24 24 24 24 24 23
22 21 21 21 21 21 21 20 19 19 19 19 20 21 21 21 21 22 22 22 21 21 21 20 21 21 21 21 22 23 23 23 23 23 23 23 23 23 23 23 23 23 22
22 21 21 20 20 20 20 20 20 19 20 20 21 21 22 22 22 22 22 22 22 22 21 22 21 20 21 21 22 22 22 22 22 22 22 22 22 23 23 23 22 22 22
Wind_Direction
292 293 294 295 293 293 294 293 292 290 290 289 290 290 293 293 290 287 282 277 274 273 271 270 270 271 272 272 272 272 273 274 274 274 275 275 275 275 275 275 275 276 275
290 291 294 295 295 294 296 298 296 293 294 295 296 296 294 293 289 285 283 280 277 276 274 272 273 273 271 272 271 271 272 273 274 274 275 276 277 277 277 277 278 279 277
290 291 292 295 298 299 300 299 299 297 297 299 299 299 298 295 292 290 287 284 282 280 277 275 274 276 275 275 273 272 273 274 274 276 277 277 277 277 278 280 281 281 278
287 289 290 294 299 301 301 300 301 301 299 301 302 301 299 296 294 291 290 288 285 282 279 277 276 277 277 276 274 274 275 276 276 278 280 280 279 279 280 280 281 281 279
285 288 291 296 298 298 298 298 299 299 300 300 301 300 299 297 296 295 295 293 290 285 282 279 278 278 277 278 278 277 277 276 278 281 283 283 281 281 281 281 282 283 282
283 286 290 295 298 297 297 297 297 298 299 301 301 300 300 299 298 297 297 294 292 289 286 283 280 280 279 281 280 281 281 281 282 283 284 284 283 282 282 282 283 283 283
284 286 289 294 296 296 298 302 301 297 300 304 303 302 300 299 298 298 298 295 292 291 290 288 285 285 285 285 285 286 285 285 285 286 287 287 286 285 285 284 285 285 283
282 285 288 291 297 300 300 302 301 302 304 307 308 307 305 303 302 302 301 298 295 293 292 291 289 288 289 290 290 291 289 288 288 289 290 290 290 288 288 288 287 287 285
276 282 285 289 294 297 299 300 300 300 304 305 308 308 307 306 304 303 301 300 300 299 296 294 292 293 292 293 294 295 293 292 292 293 294 294 295 295 293 290 288 288 288
272 279 283 287 291 293 295 298 299 302 303 303 305 307 306 306 305 304 303 302 301 300 298 297 295 294 295 295 296 298 298 298 298 298 297 296 296 296 296 294 291 289 289
269 277 283 285 286 288 292 295 298 301 304 304 304 306 306 307 307 309 309 307 303 302 300 300 298 295 296 298 299 301 301 301 300 301 300 300 300 299 299 298 296 292 291
269 276 280 284 285 289 290 290 294 298 301 303 304 305 306 306 309 311 310 308 307 306 303 301 301 301 302 303 304 305 305 304 304 303 303 303 303 303 304 304 301 298 295
271 276 279 282 285 288 291 291 292 295 300 304 306 308 309 310 311 310 311 311 308 306 304 304 306 307 308 309 309 310 310 309 309 307 306 306 305 306 307 305 304 301 297
268 273 276 279 285 289 291 293 294 295 298 306 308 310 311 312 311 310 311 312 311 309 307 307 307 308 307 309 310 311 312 312 311 309 308 308 308 308 308 308 307 306 302
266 271 274 279 283 286 289 292 293 296 298 302 306 309 310 311 313 311 309 310 310 310 309 310 311 311 312 313 314 316 316 314 314 314 313 311 310 310 310 310 309 308 306
265 268 272 276 279 283 286 290 293 296 298 301 305 307 307 308 311 312 312 312 310 310 309 311 311 310 312 313 314 315 315 315 315 316 316 313 312 312 312 312 311 310 309
263 266 270 274 279 282 284 287 290 292 294 297 299 303 306 306 307 310 312 311 310 311 312 312 312 312 312 313 314 315 316 316 317 317 317 314 313 313 313 313 313 313 312
262 265 267 271 278 282 282 284 286 287 289 292 294 297 301 303 304 305 306 309 310 310 311 313 314 312 311 311 313 314 315 316 317 318 317 316 315 315 315 315 315 315 314
261 265 268 271 276 280 280 281 283 284 286 288 291 294 297 298 301 302 301 302 306 308 308 310 311 311 311 311 312 313 315 316 317 317 317 317 318 318 318 317 316 317 316
260 263 267 271 275 277 279 280 281 282 284 286 290 293 295 297 299 301 300 300 303 303 304 306 308 309 310 311 312 313 314 315 317 318 317 318 319 319 319 319 319 318 318
260 262 266 269 274 276 276 278 279 280 282 285 288 290 291 294 297 298 298 300 302 301 302 302 304 307 308 310 310 311 313 314 316 318 318 318 319 321 321 321 320 319 319
263 263 264 269 274 276 277 276 276 278 282 285 287 288 290 291 293 296 297 298 299 298 299 299 301 304 306 308 310 311 313 315 317 318 319 318 319 322 323 323 322 321 321
263 263 265 269 273 274 276 279 278 278 282 285 287 289 290 290 291 293 296 298 299 297 297 298 300 302 303 306 308 311 313 315 317 319 320 322 323 324 324 325 325 324 326
259 262 267 270 272 274 275 276 277 279 280 282 285 288 290 290 290 291 294 296 298 297 298 299 299 301 303 305 309 310 312 314 315 317 320 322 324 325 326 326 327 327 328
259 262 265 268 271 275 275 274 275 277 279 283 285 287 289 290 291 291 293 294 295 295 297 298 299 300 303 304 308 311 313 314 316 318 319 321 323 324 326 327 328 328 328
258 260 263 266 269 271 270 270 272 275 279 282 285 288 289 291 291 292 293 294 294 293 294 296 297 298 301 303 307 311 314 316 318 319 320 321 323 324 326 326 327 327 327
Height
5810 5808 5806 5804 5802 5800 5799 5797 5794 5792 5791 5789 5787 5786 5784 5782 5780 5778 5777 5776 5776 5776 5776 5775 5775 5775 5775 5775 5775 5775 5775 5775 5774 5774 5774 5773 5772 5772 5771 5770 5769 5768 5767
5805 5804 5802 5800 5798 5796 5794 5792 5790 5788 5786 5784 5782 5780 5778 5776 5774 5773 5772 5771 5770 5770 5770 5770 5770 5770 5770 5769 5769 5769 5769 5768 5768 5767 5766 5766 5765 5764 5763 5762 5760 5759 5758
5801 5800 5798 5796 5794 5792 5790 5788 5785 5784 5782 5780 5778 5776 5773 5771 5770 5768 5767 5766 5765 5764 5764 5764 5764 5764 5763 5763 5763 5762 5762 5761 5760 5760 5759 5758 5757 5756 5754 5753 5752 5750 5749
5797 5796 5794 5792 5790 5788 5786 5784 5781 5779 5777 5776 5774 5771 5769 5767 5766 5764 5762 5761 5760 5759 5759 5758 5758 5758 5757 5757 5756 5755 5755 5754 5754 5753 5751 5750 5749 5747 5746 5745 5743 5742 5740
5793 5792 5790 5788 5786 5784 5782 5780 5778 5775 5773 5772 5770 5767 5765 5763 5762 5760 5758 5757 5755 5754 5753 5753 5752 5752 5751 5751 5750 5749 5748 5747 5746 5745 5744 5743 5741 5739 5738 5736 5735 5733 5732
5789 5787 5786 5784 5782 5780 5778 5776 5774 5772 5770 5768 5766 5763 5761 5759 5758 5756 5755 5753 5751 5750 5749 5748 5747 5746 5746 5745 5744 5743 5742 5740 5739 5738 5736 5735 5733 5732 5730 5728 5727 5725 5724
5784 5783 5781 5779 5777 5776 5774 5772 5770 5768 5766 5764 5762 5759 5758 5756 5754 5752 5751 5749 5747 5746 5744 5743 5742 5741 5740 5739 5738 5737 5735 5733 5732 5731 5729 5727 5725 5724 5722 5721 5719 5717 5715
5780 5779 5777 5776 5774 5772 5770 5768 5766 5764 5762 5761 5758 5756 5754 5752 5750 5748 5747 5745 5743 5741 5740 5738 5737 5736 5735 5733 5732 5730 5728 5727 5725 5724 5722 5720 5718 5716 5714 5713 5711 5709 5707
5776 5775 5773 5772 5770 5768 5766 5764 5762 5761 5759 5757 5755 5753 5751 5748 5746 5744 5743 5741 5739 5737 5735 5734 5732 5731 5729 5728 5726 5724 5722 5720 5718 5717 5715 5713 5711 5709 5707 5705 5703 5702 5700
5771 5771 5769 5768 5766 5764 5763 5761 5759 5757 5755 5753 5751 5749 5747 5745 5742 5740 5738 5737 5735 5733 5731 5729 5727 5726 5724 5722 5720 5718 5716 5715 5713 5711 5709 5707 5705 5703 5700 5698 5696 5694 5692
5767 5766 5765 5763 5762 5760 5759 5757 5755 5753 5751 5749 5747 5745 5743 5741 5739 5737 5734 5732 5730 5728 5726 5724 5722 5721 5719 5717 5715 5713 5711 5709 5707 5705 5703 5701 5699 5696 5694 5691 5689 5686 5684
5762 5761 5760 5759 5757 5756 5754 5753 5751 5750 5748 5746 5744 5742 5739 5737 5735 5733 5730 5728 5726 5724 5722 5720 5718 5716 5715 5713 5711 5709 5706 5704 5702 5700 5697 5695 5693 5690 5687 5685 5682 5679 5677
5757 5756 5755 5754 5753 5751 5750 5749 5747 5746 5744 5742 5740 5738 5736 5733 5731 5729 5727 5724 5722 5720 5718 5716 5715 5713 5711 5709 5707 5704 5702 5699 5697 5694 5692 5690 5687 5684 5681 5678 5675 5673 5670
5751 5751 5750 5749 5748 5747 5746 5745 5743 5742 5740 5738 5736 5734 5732 5730 5727 5725 5723 5721 5719 5717 5715 5713 5711 5709 5707 5705 5702 5700 5697 5695 5692 5689 5687 5684 5681 5678 5675 5672 5669 5666 5663
5746 5746 5745 5745 5744 5743 5742 5741 5739 5738 5736 5734 5733 5731 5729 5727 5724 5722 5719 5717 5715 5713 5711 5710 5707 5705 5703 5701 5699 5696 5693 5690 5688 5685 5682 5679 5676 5673 5670 5666 5663 5659 5655
5741 5740 5740 5739 5739 5738 5737 5736 5734 5733 5731 5730 5728 5727 5725 5723 5721 5719 5716 5714 5711 5709 5708 5706 5704 5702 5699 5697 5695 5692 5689 5687 5684 5681 5677 5674 5671 5668 5664 5660 5656 5652 5648
5735 5735 5735 5734 5733 5733 5732 5731 5729 5728 5727 5725 5724 5722 5721 5719 5717 5715 5713 5710 5708 5706 5704 5702 5700 5698 5695 5693 5690 5688 5685 5682 5679 5676 5673 5669 5665 5661 5658 5654 5650 5646 5641
5729 5729 5729 5729 5728 5727 5727 5725 5724 5723 5722 5720 5719 5718 5716 5715 5713 5711 5709 5707 5705 5702 5700 5698 5696 5694 5691 5689 5687 5684 5681 5678 5675 5671 5667 5664 5660 5656 5652 5648 5643 5639 5635
5723 5723 5723 5723 5722 5722 5721 5720 5719 5718 5716 5715 5714 5713 5711 5710 5708 5706 5704 5703 5701 5699 5696 5694 5692 5689 5687 5685 5682 5679 5676 5673 5670 5666 5662 5658 5654 5650 5646 5642 5637 5633 5628
5717 5717 5717 5717 5716 5716 5715 5714 5713 5712 5711 5710 5709 5708 5706 5704 5703 5701 5700 5698 5696 5694 5692 5690 5688 5685 5683 5680 5678 5675 5671 5668 5664 5660 5656 5652 5648 5644 5640 5636 5631 5627 5622
5710 5710 5710 5710 5710 5710 5709 5708 5708 5706 5705 5704 5704 5702 5701 5699 5698 5696 5695 5693 5691 5689 5687 5685 5683 5681 5678 5675 5672 5669 5666 5662 5659 5655 5651 5647 5643 5639 5634 5630 5625 5620 5616
5704 5704 5704 5704 5704 5703 5702 5702 5701 5700 5700 5699 5698 5696 5695 5694 5692 5691 5689 5688 5686 5684 5682 5680 5678 5675 5673 5670 5667 5664 5660 5657 5653 5649 5645 5641 5637 5633 5628 5624 5619 5614 5610
5698 5697 5697 5697 5697 5696 5696 5695 5695 5694 5693 5693 5692 5690 5689 5688 5686 5685 5684 5682 5680 5677 5675 5674 5672 5669 5667 5664 5661 5658 5655 5651 5648 5644 5640 5636 5632 5627 5623 5618 5614 5609 5605
5691 5691 5691 5690 5690 5690 5689 5689 5688 5688 5687 5686 5685 5684 5683 5682 5680 5679 5677 5675 5673 5671 5669 5667 5666 5663 5660 5657 5655 5652 5649 5646 5642 5638 5634 5631 5626 5622 5618 5613 5609 5605 5600
5684 5684 5684 5684 5683 5683 5682 5682 5682 5682 5681 5680 5679 5678 5677 5676 5674 5672 5671 5669 5667 5665 5664 5662 5659 5657 5654 5652 5649 5646 5643 5640 5636 5633 5629 5625 5621 5617 5613 5609 5605 5600 5596
5677 5677 5677 5677 5676 5676 5676 5676 5676 5676 5675 5674 5673 5672 5671 5669 5668 5666 5664 5662 5661 5659 5657 5656 5653 5651 5648 5646 5643 5641 5638 5634 5631 5627 5624 5620 5616 5612 5609 5604 5600 5596 5592